This demonstration page uses our WeatherBlox Daily Observations layout. Learn more.

Hourly Observations for May 31, 2018

Temp ( °F °C ) Dew Point ( °F °C ) Humidity (%) Winds ( mph kmh ) Pressure ( in mb ) Visibility ( mi km ) Precip ( " mm )
12:54 am 00:54 Clear 69 20.6 63 17.2 81 81 N 5 7 29.65 1004 10 16.0934 0 0
1:54 am 01:54 Clear 68 20 62 16.7 81 81 Calm 29.62 1003 10 16.0934 0 0
2:54 am 02:54 Clear 64 17.8 61 16.1 90 90 S 7 11 29.65 1004 10 16.0934 0 0
3:54 am 03:54 Clear 66 18.9 62 16.7 87 87 Calm 29.67 1005 10 16.0934 0 0
4:54 am 04:54 Clear 65 18.3 61 16.1 87 87 S 3 6 29.68 1005 10 16.0934 0 0
5:54 am 05:54 Clear 64 17.8 61 16.1 90 90 S 5 7 29.71 1006 9 14.48406 0 0
6:54 am 06:54 Sunny 66 18.9 62 16.7 87 87 Calm 29.71 1006 9 14.48406 0 0
7:54 am 07:54 Sunny 70 21.1 63 17.2 79 79 Calm 29.72 1007 9 14.48406 0 0
8:54 am 08:54 Mostly Sunny 78 25.6 65 18.3 64 64 Calm 29.72 1007 10 16.0934 0 0
9:54 am 09:54 Partly Cloudy 81 27.2 66 18.9 61 61 SSW 12 19 29.74 1007 10 16.0934 0 0
10:54 am 10:54 Sunny 84 28.9 63 17.2 49 49 WSW 6 9 29.74 1007 10 16.0934 0 0
11:54 am 11:54 Sunny 86 30 61 16.1 43 43 SW 9 15 29.73 1007 10 16.0934 0 0
12:54 pm 12:54 Sunny 86 30 62 16.7 45 45 WSW 9 15 29.73 1007 10 16.0934 0 0
1:54 pm 13:54 Sunny 87 30.6 61 16.1 42 42 W 7 11 29.73 1007 10 16.0934 0 0
2:54 pm 14:54 Sunny 91 32.8 61 16.1 37 37 WSW 10 17 29.73 1007 10 16.0934 0 0
3:54 pm 15:54 Mostly Sunny 91 32.8 61 16.1 37 37 WSW 8 13 29.72 1007 10 16.0934 0 0
4:54 pm 16:54 Mostly Cloudy 90 32.2 61 16.1 38 38 Calm 29.72 1007 10 16.0934 0 0
5:54 pm 17:54 Sunny 92 33.3 58 14.4 32 32 W 5 7 29.72 1007 10 16.0934 0 0
6:54 pm 18:54 Sunny 88 31.1 63 17.2 43 43 S 6 9 29.72 1007 10 16.0934 0 0
7:54 pm 19:54 Sunny 84 28.9 64 17.8 51 51 S 7 11 29.73 1007 10 16.0934 0 0
8:54 pm 20:54 Clear 81 27.2 61 16.1 51 51 S 6 9 29.73 1007 10 16.0934 0 0
9:54 pm 21:54 Clear 78 25.6 61 16.1 56 56 SSW 5 7 29.75 1007 10 16.0934 0 0
10:54 pm 22:54 Clear 80 26.7 59 15 49 49 undefined N/A 29.76 1008 10 16.0934 0 0
11:54 pm 23:54 Clear 75 23.9 60 15.6 60 60 S 5 7 29.77 1008 10 16.0934 0 0

Powered by AerisWeather